Weather History for KHSV - June, 2014

Change the Weather History Date:

Sunday, June 1, 2014

  Actual Average Record
Temperature  
Mean Temperature 78 °F 74 °F  
Max Temperature 85 °F 85 °F 97 °F (1951)
Min Temperature 71 °F 64 °F 45 °F (1972)
Degree Days  
Heating Degree Days 0 0  
Month to date heating degree days 0 0  
Since 1 June heating degree days 0 0  
Since 1 July heating degree days 3463 3001  
Cooling Degree Days 13 10  
Month to date cooling degree days 13 10  
Year to date cooling degree days 284 273  
Since 1 June cooling degree days 13 10  
Growing Degree Days 28 (Base 50)    
Moisture  
Dew Point 67 °F    
Average Humidity 74    
Maximum Humidity 90    
Minimum Humidity 58    
Precipitation  
Precipitation 0.17 in 0.15 in 2.29 in (1946)
Month to date precipitation 0.17 0.15  
Year to date precipitation 23.64 24.52  
Snow  
Snow 0.00 in - - ()
Month to date snowfall 0.0  
Since 1 June snowfall 0.0  
Since 1 July snowfall 5.2  
Snow Depth 0.00 in    
Sea Level Pressure  
Sea Level Pressure 30.11 in    
Wind  
Wind Speed 10 mph (SE)    
Max Wind Speed 23 mph    
Max Gust Speed 28 mph    
Visibility 10 miles    
Events Rain    
T = Trace of Precipitation, MM = Missing Value Source: NWS Daily Summary

Daily Weather History Graph

Daily Weather History Graph

Search for Another Location

Airport or City:

Trip Planner

Search our weather history database for the weather conditions in past years. The results will help you decide how hot, cold, wet, or windy it might be!

Date:

Astronomy

Jun. 01, 2014 Rise Set
Actual Time 5:35 AM CDT 7:54 PM CDT
Civil Twilight 5:06 AM CDT 8:24 PM CDT
Nautical Twilight 4:30 AM CDT 8:59 PM CDT
Astronomical Twilight 3:51 AM CDT 9:38 PM CDT
Moon 9:02 AM CDT (6/1) 10:55 PM CDT (6/1)
Length of Visible Light 15h 17m
Length of Day
14h 19m
Waxing Crescent, 14% of the Moon is Illuminated
Jun 1
Waxing Crescent
Jun 5
First Quarter
Jun 12
Full
Jun 19
Last Quarter
Jun 27
New

Hourly Weather History & Observations

Time (CDT) Temp. Heat Index Dew Point Humidity Pressure Visibility Wind Dir Wind Speed Gust Speed Precip Events Conditions
12:53 AM 73.9 °F - 64.9 °F 73% 30.08 in 10.0 mi SE 10.4 mph - N/A   Scattered Clouds
1:53 AM 73.9 °F - 66.0 °F 76% 30.08 in 10.0 mi SE 8.1 mph - N/A   Overcast
2:14 AM 71.6 °F - 68.0 °F 88% 30.11 in 2.5 mi SE 4.6 mph - 0.16 in Rain Rain
2:21 AM 71.6 °F - 68.0 °F 88% 30.11 in 10.0 mi ESE 4.6 mph - 0.16 in   Overcast
2:53 AM 72.0 °F - 68.0 °F 87% 30.09 in 10.0 mi East 5.8 mph - 0.17 in   Overcast
3:53 AM 71.1 °F - 66.9 °F 87% 30.09 in 10.0 mi ESE 6.9 mph - N/A   Scattered Clouds
4:53 AM 71.1 °F - 66.9 °F 87% 30.09 in 10.0 mi ESE 5.8 mph - N/A   Clear
5:53 AM 71.1 °F - 66.9 °F 87% 30.11 in 10.0 mi East 6.9 mph - N/A   Mostly Cloudy
6:53 AM 72.0 °F - 66.9 °F 84% 30.12 in 10.0 mi ESE 10.4 mph - N/A   Mostly Cloudy
7:53 AM 73.9 °F - 68.0 °F 82% 30.13 in 10.0 mi ESE 10.4 mph - 0.00 in Rain Light Rain
8:53 AM 75.0 °F - 66.9 °F 76% 30.15 in 10.0 mi ESE 15.0 mph - 0.00 in   Mostly Cloudy
9:53 AM 78.1 °F - 68.0 °F 71% 30.14 in 10.0 mi SE 13.8 mph - N/A   Mostly Cloudy
10:53 AM 79.0 °F - 68.0 °F 69% 30.15 in 10.0 mi SE 9.2 mph - N/A   Mostly Cloudy
11:53 AM 80.1 °F 82.9 °F 69.1 °F 69% 30.14 in 10.0 mi SE 9.2 mph - N/A   Mostly Cloudy
12:53 PM 82.9 °F 85.8 °F 68.0 °F 60% 30.13 in 10.0 mi SE 15.0 mph 20.7 mph N/A   Mostly Cloudy
1:53 PM 82.9 °F 85.8 °F 68.0 °F 60% 30.10 in 10.0 mi SSE 13.8 mph - N/A   Mostly Cloudy
2:53 PM 82.9 °F 85.0 °F 66.0 °F 56% 30.08 in 10.0 mi SE 15.0 mph - N/A   Mostly Cloudy
3:53 PM 82.0 °F 85.9 °F 70.0 °F 67% 30.06 in 10.0 mi SE 9.2 mph - N/A   Mostly Cloudy
4:53 PM 78.1 °F - 68.0 °F 71% 30.07 in 10.0 mi SE 11.5 mph - 0.00 in   Mostly Cloudy
5:53 PM 78.1 °F - 69.1 °F 74% 30.07 in 10.0 mi SE 9.2 mph - N/A   Mostly Cloudy
6:53 PM 78.1 °F - 68.0 °F 71% 30.09 in 10.0 mi SE 11.5 mph - N/A   Mostly Cloudy
7:53 PM 75.9 °F - 68.0 °F 76% 30.09 in 10.0 mi ESE 9.2 mph - N/A   Mostly Cloudy
8:53 PM 75.0 °F - 68.0 °F 79% 30.11 in 10.0 mi SSE 6.9 mph - N/A   Overcast
9:53 PM 73.4 °F - 68.0 °F 83% 30.13 in 10.0 mi SE 6.9 mph - N/A Rain Light Rain
10:53 PM 75.0 °F - 64.9 °F 71% 30.12 in 10.0 mi SE 11.5 mph - 0.00 in   Overcast
11:53 PM 73.9 °F - 64.0 °F 71% 30.13 in 10.0 mi SSE 11.5 mph - N/A   Mostly Cloudy